Home > Weather > Kristiansand > Past weeks

Flag for Norway Past Weather in Kristiansand, Norway — Yesterday and Last 2 Weeks

Now
55 °F

Partly sunny.


Feels Like: 55 °F
Forecast: 59 / 70 °F
Wind: 3 mph from North

Location: Kristiansand / Kjevik

Current Time: Aug 24, 2016 at 9:02:11 AM

Latest Report: Aug 24, 2016 at 8:20 AM


Visibility: N/A

Pressure: 30.27 "Hg

Humidity: 94%

Dew Point: 54 °F

Location of KristiansandLocation

Past Weather in Kristiansand — Graph

°F

Kristiansand Temperature Yesterday

Maximum temperature yesterday: 70 °F (at 4:50 PM)
Minimum temperature yesterday: 50 °F (at 5:20 AM)
Average temperature yesterday: 60 °F

High & Low Weather Summary for the Past Weeks

 TemperatureHumidityPressure
High72 °F (Aug 14, 4:20 PM)100% (Aug 12, 1:50 PM)30.27 "Hg (Aug 12, 1:50 PM)
Low46 °F (Aug 11, 6:20 AM)32% (Aug 10, 5:20 PM)29.65 "Hg (Aug 9, 7:20 AM)
Average59 °F75%29.95 "Hg
* Reported Aug 9 7:20 AM — Aug 24 7:50 AM, Kristiansand, Weather by CustomWeather, © 2016

Note: Actual official high and low records may vary slightly from our data, if they occured in-between our weather recording intervals... More about our weather records

Advertising

Kristiansand Weather History for the Previous 24 Hours

Scroll right to see more
 ConditionsComfort  
Time TempWeatherWind HumidityBarometerVisibility
7:50 AM
Wed, Aug 24
55 °FPartly sunny.5 mph94%30.24 "HgN/A
7:20 AM54 °FPartly sunny.5 mph100%30.27 "HgN/A
6:50 AM55 °FPassing clouds.3 mph94%30.24 "HgN/A
6:20 AM54 °FPassing clouds.3 mph100%30.24 "HgN/A
5:50 AM55 °FLow clouds.2 mph94%30.24 "HgN/A
5:20 AM54 °FLow clouds.3 mph100%30.24 "HgN/A
4:50 AM55 °FPassing clouds.6 mph94%30.24 "Hg0 mi
4:20 AM52 °FPassing clouds.1 mph100%30.24 "Hg0 mi
3:50 AM52 °FFog.No wind100%30.24 "Hg1 mi
3:20 AM54 °FFog.No wind94%30.24 "Hg1 mi
2:50 AM54 °FFog.No wind100%30.24 "Hg0 mi
1:50 AM54 °FPassing clouds.2 mph94%30.24 "HgN/A
1:20 AM55 °FPassing clouds.No wind94%30.24 "HgN/A
12:50 AM55 °FPassing clouds.No wind94%30.24 "HgN/A
12:20 AM55 °FPassing clouds.2 mph100%30.24 "HgN/A
11:50 PM
Tue, Aug 23
55 °FPassing clouds.3 mph94%30.24 "HgN/A
11:20 PM57 °FPassing clouds.3 mph94%30.24 "HgN/A
10:50 PM57 °FClear.5 mph94%30.24 "Hg10 mi
10:20 PM59 °FPassing clouds.3 mph94%30.24 "HgN/A
9:50 PM61 °FClear.2 mph88%30.24 "Hg10 mi
9:20 PM63 °FSunny.6 mph88%30.24 "Hg10 mi
8:50 PM64 °FSunny.5 mph83%30.21 "Hg10 mi
8:20 PM64 °FPassing clouds.6 mph83%30.21 "HgN/A
7:50 PM66 °FPassing clouds.7 mph78%30.21 "HgN/A
7:20 PM68 °FPassing clouds.5 mph69%30.21 "HgN/A
6:50 PM68 °FPassing clouds.5 mph69%30.21 "HgN/A
6:20 PM68 °FPassing clouds.5 mph69%30.21 "HgN/A
5:50 PM68 °FPassing clouds.7 mph69%30.21 "HgN/A
5:20 PM66 °FScattered clouds.13 mph78%30.21 "HgN/A
4:50 PM70 °FPassing clouds.6 mph64%30.21 "HgN/A
4:20 PM68 °FPassing clouds.6 mph69%30.21 "HgN/A
3:50 PM68 °FPassing clouds.6 mph69%30.21 "HgN/A
3:20 PM68 °FPassing clouds.12 mph69%30.21 "HgN/A
2:50 PM66 °FPassing clouds.10 mph73%30.21 "HgN/A
2:20 PM68 °FPassing clouds.14 mph73%30.21 "HgN/A
1:50 PM68 °FPassing clouds.10 mph69%30.21 "HgN/A
1:20 PM68 °FPassing clouds.10 mph69%30.21 "HgN/A
12:50 PM68 °FPassing clouds.7 mph69%30.21 "HgN/A
12:20 PM66 °FPassing clouds.5 mph68%30.21 "HgN/A
11:50 AM66 °FPassing clouds.3 mph68%30.18 "HgN/A
11:20 AM64 °FPassing clouds.3 mph78%30.18 "HgN/A
10:50 AM63 °FSunny.5 mph83%30.21 "Hg10 mi
10:20 AM61 °FPassing clouds.3 mph88%30.18 "HgN/A
9:50 AM57 °FSunny.3 mph94%30.18 "Hg10 mi
9:20 AM57 °FSunny.1 mph94%30.18 "Hg10 mi
Weather by CustomWeather, © 2016

See weather overviewHow to use our weather pages